Notices

What's New in latest Release from April 7th, 2021:

- Updated Glossary, including Speed of Maximum Gust, and Total Hourly Precipitation

- Updated national and regional climate services offices contacts and prices information

- Addition of station inventory lists for 1981-2010, 1971-2000, and 1961-1990 Normals.

Please note that as of June 10, 2021 UTC dates are available for all years 2004-present, and DBA is working on populating the remaining years (2003 to 1953).

If you haven't already, please take our survey and provide feedback about our website: https://eccc.sondage-survey.ca/f/LanguageSelection.aspx?s=442ca660-fcf1-47c0-95a9-59707d6fd709

Hourly Data Report for December 13, 2020

CARBERRY CS
MANITOBA
Current Station Operator: ECCC - MSC

49°54'20.900" N
99°21'26.800" W
383.50 m
5010547
71170
WZE

Download Data

Hourly Data (December 2020)
Hourly Data Report for December 13, 2020
TIME
LST
Temp Definition
°C
Dew Point Definition
°C
Rel Hum Definition
%
Precip. Amount Definition
mm

Wind Dir Definition
10's deg

Wind Spd Definition
km/h
Visibility Definition
km
Stn Press Definition
kPa
Hmdx Definition


Wind Chill Definition


Weather Definition


00:00 -5.8 -7.6 87 0.0 21 18   97.17   -12 LegendNANA
01:00 -5.9 -7.8 87 0.0 21 17   97.05   -12 LegendNANA
02:00 -5.9 -7.3 89 0.0 21 18   96.99   -12 LegendNANA
03:00 -5.7 -6.7 93 0.2 21 14   96.93   -11 LegendNANA
04:00 -5.4 -6.2 94 0.0 22 12   96.86   -10 LegendNANA
05:00 -5.0 -5.7 95 0.2 24 12   96.80   -10 LegendNANA
06:00 -5.0 -5.6 96 0.0 26 16   96.81   -11 LegendNANA
07:00 -4.7 -6.2 89 0.0 29 21   96.87   -11 LegendNANA
08:00 -5.3 -6.4 92 0.2 30 28   96.92   -13 LegendNANA
09:00 -8.3 -11.1 80 0.0 30 32   97.05   -18 LegendNANA
10:00 -10.8 -14.1 76 0.0 30 33   97.14   -21 LegendNANA
11:00 -11.2 -14.6 76 0.0 30 30   97.24   -21 LegendNANA
12:00 -10.7 -14.2 75 0.0 31 31   97.31   -21 LegendNANA
13:00 -10.8 -14.7 73 0.0 30 31   97.35   -21 LegendNANA
14:00 -10.7 -14.6 73 0.0 31 29   97.37   -20 LegendNANA
15:00 -10.9 -14.9 73 0.0 30 26   97.44   -20 LegendNANA
16:00 -11.3 -15.6 71 0.0 31 27   97.50   -21 LegendNANA
17:00 -12.3 -15.7 76 0.0 29 23   97.58   -21 LegendNANA
18:00 -14.3 -17.6 76 0.0 28 22   97.64   -24 LegendNANA
19:00 -16.4 -19.4 78 0.0 28 20   97.69   -26 LegendNANA
20:00 -18.0 -20.9 78 0.2 27 15   97.75   -27 LegendNANA
21:00 -19.8 -22.6 78 0.0 27 14   97.79   -29 LegendNANA
22:00 -20.6 -23.6 77 0.0 29 12   97.82   -29 LegendNANA
23:00 -20.8 -24.1 75 0.0 30 15   97.89   -30 LegendNANA

Notes on Data Quality.

Legend

  • E = Estimated
  • M = Missing
  • NA = Not Available*
  • [empty] = Indicates an unobserved value
Date modified: